Regional Weather Roundup
Issued by NWS Jackson, KY

Home | Current Version | Previous Version | Text Only | Print | Product List | Glossary On
Versions: 1 2 3 4 5 6 7 8 9 10 11 12 13 14 15 16 17 18 19 20 21 22 23 24 25 26 27 28 29 30 31 32 33 34 35 36 37 38 39 40 41 42 43 44 45 46 47 48 49 50
000
ASUS43 KJKL 290719
RWRJKL

EAST KENTUCKY HOURLY WEATHER ROUNDUP
NATIONAL WEATHER SERVICE JACKSON KY
200 AM EST SAT NOV 29 2014

NOTE: "FAIR" INDICATES FEW OR NO CLOUDS BELOW 12,000 FEET WITH
NO SIGNIFICANT WEATHER AND/OR OBSTRUCTIONS TO VISIBILITY.

* THESE REPORTS ARE NOT UNDER NWS QUALITY CONTROL AND MAY NOT
  REPORT WEATHER SUCH AS PRECIPITATION AND FOG.

KYZ079-080-083-085-087-088-110-112-115-119-120-290800
...EASTERN KENTUCKY...

CITY           SKY/WX    TMP DP  RH WIND       PRES   REMARKS
JACKSON        PTCLDY    35  16  45 CALM      30.12R
LONDON         PTCLDY    37  19  48 CALM      30.12S
SOMERSET*      PTCLDY    37  19  48 S5        30.14R WCI  34
MONTICELLO*    PTCLDY    39  21  48 S6        30.14S WCI  35
HARLAN APT*    SUNNY     36  18  48 E7        30.15F WCI  30
HAZARD APT*    SUNNY     36  19  51 CALM      30.13R
BLACK MTN*       N/A     30  19  64 S12         N/A  WCI  21
PIKEVILLE APT* CLEAR     34  18  51 SE6       30.12R WCI  29
BIG SANDY*     PTSUNNY   32  21  63 SE3       30.13S
MOREHEAD APT*  CLOUDY    34  18  51 SE6       30.14R WCI  29
ASHLAND*       CLEAR     32  19  59 SE3       30.13S
$$

KYZ035-036-041-042-044-050-067-078-099-290800
...CENTRAL KENTUCKY...

CITY           SKY/WX    TMP DP  RH WIND       PRES   REMARKS
MT STERLING*   PTCLDY    34  21  60 SW5       30.12S WCI  30
FLEMING/MASON* CLEAR     32  19  59 SE5       30.12S WCI  27
DANVILLE*      PTCLDY    32  23  69 SW3       30.11R
RICHMOND*      PTCLDY    37  19  48 S8        30.10S WCI  31
LEXINGTON      PTCLDY    34  21  59 S9        30.10R WCI  27
FRANKFORT      PTCLDY    30  20  66 SE5       30.07F WCI  25
$$

KYZ091>093-OHZ055-061-077-WVZ005-015-034-035-042-290800
...SOUTHERN OHIO/WEST VIRGINIA...

CITY           SKY/WX    TMP DP  RH WIND       PRES   REMARKS
COVINGTON      CLOUDY    34  19  54 S9        30.05F WCI  27
COLUMBUS       CLOUDY    32  18  56 SE7       30.09F WCI  26
DAYTON         CLOUDY    32  20  61 S12       30.04F WCI  23
WILMINGTON     CLOUDY    33  19  56 S10       30.07F WCI  25
HUNTINGTON     MOCLDY    29  22  75 E3        30.14S
CHARLESTON     MOCLDY    27  23  85 CALM      30.16R
PINEVILLE*     MOCLDY    26  26 100 MISG      30.22R
BECKLEY        CLEAR     27  16  63 SE7       30.14R WCI  19
BLUEFIELD      PTCLDY    29  14  53 CALM      30.14R
$$

VAZ002-007-008-TNZ017-027-036-066-071-290800
...SOUTHWEST VIRGINIA/EAST TENNESSEE...

CITY           SKY/WX    TMP DP  RH WIND       PRES   REMARKS
WISE*          CLEAR     30  19  64 SW7       30.12S WCI  23
JONESVILLE*    SUNNY     23  23 100 CALM      30.22S
ABINGDON*      CLEAR     27  23  84 E6        30.17F WCI  20
BRISTOL        CLEAR     26  22  84 CALM      30.20S
KNOXVILLE      PTCLDY    30  25  81 CALM      30.19F
OAK RIDGE      PTCLDY    33  21  61 SW3       30.21F
CROSSVILLE     CLEAR     39  17  41 S8        30.15S WCI  33
NASHVILLE      PTCLDY    42  22  44 S12       30.14S
$$

...KEY TO REMARKS...
VSB - VISIBILITY IN MILES
WCI - WIND CHILL INDEX
HX  - HEAT INDEX

$$


USA.gov is the U.S. government's official web portal to all federal, state and local government web resources and services.